Location: *
(41.0833°N, 73.4167°W)
Time: 17:12:09
(UTC+00:00)

Cosmos 1606 Rocket - Pass Details

Date: 22 October 2019
Orbit: 602 x 633 km, 82.5° (Epoch: 13 November)

Event Time Altitude Azimuth Distance (km) Brightness Sun altitude
Rises 09:43:09 0° 344° (NNW) 2,863 6.8 -17.6°
Reaches altitude 10° 09:45:27 10° 338° (NNW) 1,956 5.9 -17.1°
Maximum altitude 09:49:31 41° 268° (W) 876 3.8 -16.4°
Drops below altitude 10° 09:53:34 10° 198° (SSW) 1,949 5.9 -15.6°
Sets 09:55:51 0° 191° (S) 2,852 6.9 -15.2°
